THY321 LTFJ-EDDF

Flight info

Callsign THY321
Flight time 2h 47m
Altitude 36000
Route VADEN N618 BAKLO DCT XANEX DCT BESLI DCT UTEKA DCT BABIT DCT GOTAR DCT ABRUK DCT SIMBA DCT AKINI T161 DEBHI DEBHI1C
Aircraft A321/M-SDE3FGHIRWY/LB1

Departure

Time 2026-05-07 22:02
Airport Istanbul Sabiha Gökçen International Airport (LTFJ)

Arrival

Time 2026-05-08 00:49
Airport Frankfurt Main Airport (EDDF)
Time Latitude Longitude Altitude Speed Heading
2026-05-07 21:25 40.90708 29.31854 311 ft 0 kts 334°
2026-05-07 21:47 40.90703 29.31858 311 ft 4 kts 335°
2026-05-07 21:48 40.90677 29.31871 311 ft 4 kts 346°
2026-05-07 21:48 40.90651 29.31877 310 ft 4 kts 359°
2026-05-07 21:48 40.90624 29.31874 308 ft 4 kts 19°
2026-05-07 21:48 40.90604 29.31857 310 ft 2 kts 62°
2026-05-07 21:49 40.90603 29.31854 310 ft 0 kts 64°
2026-05-07 21:52 40.90605 29.31860 310 ft 1 kts 64°
2026-05-07 21:52 40.90612 29.31879 311 ft 3 kts 64°
2026-05-07 21:52 40.90624 29.31910 310 ft 5 kts 64°
2026-05-07 21:52 40.90640 29.31954 311 ft 6 kts 64°
2026-05-07 21:53 40.90661 29.32011 311 ft 8 kts 64°
2026-05-07 21:53 40.90686 29.32079 311 ft 9 kts 64°
2026-05-07 21:53 40.90716 29.32160 311 ft 10 kts 64°
2026-05-07 21:53 40.90743 29.32251 311 ft 9 kts 98°
2026-05-07 21:54 40.90704 29.32281 311 ft 7 kts 155°
2026-05-07 21:54 40.90654 29.32313 311 ft 9 kts 153°
2026-05-07 21:54 40.90609 29.32368 311 ft 10 kts 118°
2026-05-07 21:54 40.90560 29.32434 311 ft 11 kts 150°
2026-05-07 21:55 40.90490 29.32477 312 ft 11 kts 155°
2026-05-07 21:55 40.90420 29.32520 313 ft 11 kts 155°
2026-05-07 21:55 40.90338 29.32576 310 ft 15 kts 152°
2026-05-07 21:55 40.90260 29.32520 309 ft 15 kts 239°
2026-05-07 21:56 40.90214 29.32399 311 ft 15 kts 245°
2026-05-07 21:56 40.90169 29.32270 311 ft 16 kts 245°
2026-05-07 21:56 40.90120 29.32133 311 ft 17 kts 244°
2026-05-07 21:56 40.90037 29.32063 310 ft 12 kts 159°
2026-05-07 21:57 40.89960 29.32109 311 ft 13 kts 153°
2026-05-07 21:57 40.89875 29.32166 309 ft 15 kts 154°
2026-05-07 21:57 40.89768 29.32234 307 ft 19 kts 155°
2026-05-07 21:57 40.89640 29.32315 302 ft 20 kts 153°
2026-05-07 21:58 40.89519 29.32367 303 ft 15 kts 151°
2026-05-07 21:58 40.89513 29.32487 304 ft 15 kts 64°
2026-05-07 21:58 40.89563 29.32620 303 ft 17 kts 64°
2026-05-07 21:58 40.89620 29.32772 298 ft 20 kts 64°
2026-05-07 21:59 40.89688 29.32956 295 ft 24 kts 64°
2026-05-07 21:59 40.89765 29.33163 288 ft 26 kts 64°
2026-05-07 21:59 40.89841 29.33377 294 ft 25 kts 65°
2026-05-07 21:59 40.89911 29.33565 302 ft 21 kts 64°
2026-05-07 22:00 40.89970 29.33722 311 ft 17 kts 64°
2026-05-07 22:00 40.89945 29.33830 314 ft 13 kts 151°
2026-05-07 22:00 40.89862 29.33890 313 ft 14 kts 153°
2026-05-07 22:00 40.89810 29.33853 308 ft 3 kts 242°
2026-05-07 22:01 40.89785 29.33788 303 ft 15 kts 244°
2026-05-07 22:01 40.89639 29.33395 293 ft 86 kts 244°
2026-05-07 22:01 40.89278 29.32417 304 ft 147 kts 244°
2026-05-07 22:01 40.88766 29.31053 570 ft 172 kts 243°
2026-05-07 22:02 40.88219 29.29639 1237 ft 174 kts 243°
2026-05-07 22:02 40.87824 29.28690 1730 ft 174 kts 241°
2026-05-07 22:02 40.87002 29.26884 2477 ft 178 kts 248°
2026-05-07 22:02 40.86820 29.25785 2659 ft 188 kts 272°
2026-05-07 22:03 40.87676 29.23685 2935 ft 214 kts 309°
2026-05-07 22:03 40.88397 29.22685 3080 ft 231 kts 311°
2026-05-07 22:03 40.89571 29.21101 3535 ft 247 kts 311°
2026-05-07 22:03 40.90770 29.19444 4273 ft 252 kts 310°
2026-05-07 22:04 40.91959 29.17714 5033 ft 257 kts 309°
2026-05-07 22:04 40.93140 29.15917 5789 ft 261 kts 308°
2026-05-07 22:04 40.94298 29.14089 6552 ft 265 kts 308°
2026-05-07 22:04 40.95485 29.12160 7286 ft 269 kts 307°
2026-05-07 22:05 40.96644 29.10246 8019 ft 272 kts 307°
2026-05-07 22:05 40.97829 29.08276 8764 ft 275 kts 307°
2026-05-07 22:05 40.99026 29.06277 9517 ft 279 kts 308°
2026-05-07 22:05 41.00236 29.04252 10215 ft 284 kts 308°
2026-05-07 22:06 41.01513 29.02118 10433 ft 307 kts 308°
2026-05-07 22:06 41.02887 28.99822 10609 ft 328 kts 308°
2026-05-07 22:06 41.04330 28.97415 11116 ft 337 kts 308°
2026-05-07 22:06 41.05796 28.94969 11767 ft 341 kts 307°
2026-05-07 22:07 41.07277 28.92495 12415 ft 345 kts 308°
2026-05-07 22:07 41.08781 28.89980 13081 ft 349 kts 308°
2026-05-07 22:07 41.10293 28.87446 13744 ft 352 kts 308°
2026-05-07 22:07 41.11821 28.84883 14352 ft 356 kts 308°
2026-05-07 22:08 41.13361 28.82298 14949 ft 359 kts 308°
2026-05-07 22:08 41.14913 28.79689 15558 ft 362 kts 308°
2026-05-07 22:08 41.16475 28.77057 16171 ft 364 kts 308°
2026-05-07 22:08 41.18048 28.74405 16787 ft 367 kts 308°
2026-05-07 22:09 41.19637 28.71729 17390 ft 370 kts 308°
2026-05-07 22:09 41.21238 28.69036 17999 ft 373 kts 308°
2026-05-07 22:09 41.22854 28.66314 18562 ft 376 kts 308°
2026-05-07 22:09 41.24479 28.63570 19052 ft 380 kts 307°
2026-05-07 22:10 41.26121 28.60794 19568 ft 383 kts 307°
2026-05-07 22:10 41.27772 28.58001 20097 ft 386 kts 307°
2026-05-07 22:10 41.29433 28.55189 20622 ft 388 kts 307°
2026-05-07 22:10 41.31107 28.52349 21151 ft 391 kts 307°
2026-05-07 22:11 41.32793 28.49489 21677 ft 394 kts 307°
2026-05-07 22:11 41.34490 28.46607 22194 ft 397 kts 307°
2026-05-07 22:11 41.36198 28.43705 22683 ft 400 kts 307°
2026-05-07 22:11 41.37919 28.40780 23153 ft 402 kts 307°
2026-05-07 22:12 41.39650 28.37832 23617 ft 406 kts 307°
2026-05-07 22:12 41.41392 28.34862 24011 ft 409 kts 307°
2026-05-07 22:12 41.43148 28.31870 24402 ft 411 kts 307°
2026-05-07 22:12 41.44914 28.28861 24792 ft 413 kts 307°
2026-05-07 22:13 41.46684 28.25835 25175 ft 415 kts 307°
2026-05-07 22:13 41.48461 28.22786 25558 ft 417 kts 307°
2026-05-07 22:13 41.50244 28.19725 25940 ft 419 kts 307°
2026-05-07 22:13 41.52038 28.16642 26321 ft 421 kts 307°
2026-05-07 22:14 41.53839 28.13544 26679 ft 424 kts 307°
2026-05-07 22:14 41.55652 28.10428 27040 ft 426 kts 307°
2026-05-07 22:14 41.57473 28.07298 27394 ft 428 kts 307°
2026-05-07 22:14 41.59279 28.04191 27755 ft 430 kts 307°
2026-05-07 22:15 41.61116 28.01029 28122 ft 432 kts 307°
2026-05-07 22:15 41.62960 27.97846 28457 ft 434 kts 306°
2026-05-07 22:15 41.64810 27.94644 28810 ft 436 kts 306°
2026-05-07 22:15 41.66666 27.91429 29152 ft 438 kts 306°
2026-05-07 22:16 41.68532 27.88202 29475 ft 440 kts 306°
2026-05-07 22:16 41.70407 27.84955 29821 ft 442 kts 306°
2026-05-07 22:16 41.72288 27.81692 30153 ft 444 kts 306°
2026-05-07 22:16 41.74176 27.78413 30445 ft 446 kts 306°
2026-05-07 22:17 41.76074 27.75120 30748 ft 447 kts 306°
2026-05-07 22:17 41.77970 27.71825 31113 ft 446 kts 306°
2026-05-07 22:17 41.79860 27.68537 31538 ft 444 kts 306°
2026-05-07 22:17 41.81739 27.65262 31954 ft 442 kts 306°
2026-05-07 22:18 41.83609 27.61998 32371 ft 441 kts 306°
2026-05-07 22:18 41.87318 27.55496 33214 ft 437 kts 306°
2026-05-07 22:18 41.89161 27.52258 33614 ft 435 kts 306°
2026-05-07 22:19 41.90997 27.49033 34007 ft 434 kts 306°
2026-05-07 22:19 41.92828 27.45822 34363 ft 432 kts 306°
2026-05-07 22:19 41.94652 27.42625 34692 ft 431 kts 305°
2026-05-07 22:19 41.96470 27.39431 35030 ft 429 kts 305°
2026-05-07 22:20 41.98275 27.36254 35395 ft 426 kts 305°
2026-05-07 22:20 42.00068 27.33094 35791 ft 423 kts 306°
2026-05-07 22:20 42.01848 27.29950 36063 ft 422 kts 306°
2026-05-07 22:21 42.05351 27.23752 36103 ft 417 kts 306°
2026-05-07 22:21 42.08979 27.17670 36121 ft 418 kts 309°
2026-05-07 22:22 42.12892 27.11882 36106 ft 418 kts 311°
2026-05-07 22:22 42.16848 27.06132 36098 ft 418 kts 310°
2026-05-07 22:23 42.20751 27.00323 36110 ft 418 kts 309°
2026-05-07 22:23 42.24621 26.94452 36118 ft 419 kts 309°
2026-05-07 22:24 42.28486 26.88572 36116 ft 419 kts 309°
2026-05-07 22:24 42.32360 26.82692 36117 ft 419 kts 309°
2026-05-07 22:25 42.36234 26.76804 36114 ft 419 kts 309°
2026-05-07 22:25 42.40111 26.70902 36120 ft 420 kts 309°
2026-05-07 22:26 42.43984 26.64983 36111 ft 420 kts 309°
2026-05-07 22:26 42.47859 26.59060 36114 ft 420 kts 309°
2026-05-07 22:27 42.51732 26.53132 36116 ft 420 kts 309°
2026-05-07 22:27 42.55224 26.46850 36122 ft 415 kts 296°
2026-05-07 22:28 42.57943 26.39940 36123 ft 416 kts 296°
2026-05-07 22:28 42.60681 26.33028 36120 ft 416 kts 296°
2026-05-07 22:29 42.63398 26.26157 36115 ft 416 kts 296°
2026-05-07 22:29 42.66142 26.19195 36103 ft 415 kts 296°
2026-05-07 22:30 42.68837 26.12327 36118 ft 414 kts 296°
2026-05-07 22:30 42.71549 26.05400 36100 ft 415 kts 296°
2026-05-07 22:31 42.74258 25.98465 36091 ft 416 kts 296°
2026-05-07 22:31 42.76969 25.91502 36102 ft 416 kts 296°
2026-05-07 22:32 42.79664 25.84543 36104 ft 415 kts 296°
2026-05-07 22:32 42.82360 25.77594 36102 ft 415 kts 296°
2026-05-07 22:33 42.85053 25.70645 36101 ft 415 kts 296°
2026-05-07 22:33 42.87733 25.63693 36112 ft 414 kts 296°
2026-05-07 22:34 42.90394 25.56758 36110 ft 412 kts 296°
2026-05-07 22:34 42.93042 25.49842 36106 ft 411 kts 296°
2026-05-07 22:35 42.95682 25.42947 36107 ft 410 kts 296°
2026-05-07 22:35 42.98318 25.36052 36098 ft 409 kts 296°
2026-05-07 22:36 43.00947 25.29161 36094 ft 409 kts 296°
2026-05-07 22:36 43.03565 25.22263 36095 ft 409 kts 296°
2026-05-07 22:37 43.06165 25.15411 36093 ft 409 kts 296°
2026-05-07 22:37 43.08779 25.08513 36089 ft 408 kts 296°
2026-05-07 22:38 43.11378 25.01601 36090 ft 408 kts 296°
2026-05-07 22:38 43.13756 24.94557 36086 ft 408 kts 291°
2026-05-07 22:39 43.15877 24.87379 36090 ft 408 kts 291°
2026-05-07 22:39 43.17994 24.80175 36087 ft 407 kts 291°
2026-05-07 22:40 43.20106 24.72973 36090 ft 407 kts 291°
2026-05-07 22:40 43.22214 24.65774 36085 ft 407 kts 291°
2026-05-07 22:41 43.24318 24.58571 36085 ft 407 kts 291°
2026-05-07 22:41 43.26416 24.51363 36087 ft 407 kts 291°
2026-05-07 22:42 43.28513 24.44155 36105 ft 407 kts 290°
2026-05-07 22:42 43.30602 24.36934 36092 ft 407 kts 290°
2026-05-07 22:43 43.32688 24.29706 36087 ft 407 kts 290°
2026-05-07 22:43 43.34773 24.22472 36085 ft 407 kts 290°
2026-05-07 22:44 43.36852 24.15233 36087 ft 407 kts 290°
2026-05-07 22:44 43.38916 24.07993 36084 ft 407 kts 290°
2026-05-07 22:45 43.40997 24.00760 36083 ft 407 kts 291°
2026-05-07 22:45 43.43266 23.93628 36089 ft 407 kts 292°
2026-05-07 22:46 43.45587 23.86579 36083 ft 407 kts 292°
2026-05-07 22:46 43.47889 23.79461 36089 ft 407 kts 292°
2026-05-07 22:47 43.50148 23.72322 36090 ft 406 kts 291°
2026-05-07 22:47 43.52393 23.65180 36091 ft 406 kts 291°
2026-05-07 22:48 43.54640 23.58037 36095 ft 406 kts 292°
2026-05-07 22:48 43.56886 23.50893 36096 ft 406 kts 291°
2026-05-07 22:49 43.59123 23.43744 36097 ft 406 kts 291°
2026-05-07 22:49 43.61364 23.36593 36097 ft 406 kts 291°
2026-05-07 22:50 43.63600 23.29439 36099 ft 406 kts 291°
2026-05-07 22:50 43.65467 23.23437 36100 ft 406 kts 291°
2026-05-07 22:51 43.67679 23.16325 36111 ft 405 kts 291°
2026-05-07 22:51 43.69891 23.09179 36104 ft 404 kts 291°
2026-05-07 22:52 43.72109 23.01990 36100 ft 404 kts 291°
2026-05-07 22:52 43.74292 22.94906 36105 ft 403 kts 291°
2026-05-07 22:53 43.76484 22.87770 36109 ft 403 kts 291°
2026-05-07 22:53 43.78663 22.80644 36106 ft 402 kts 291°
2026-05-07 22:54 43.80837 22.73533 36109 ft 401 kts 291°
2026-05-07 22:54 43.83003 22.66425 36106 ft 400 kts 290°
2026-05-07 22:55 43.85159 22.59317 36112 ft 400 kts 290°
2026-05-07 22:55 43.87308 22.52219 36111 ft 399 kts 290°
2026-05-07 22:56 43.89445 22.45133 36108 ft 398 kts 290°
2026-05-07 22:56 43.91912 22.38276 36104 ft 401 kts 302°
2026-05-07 22:57 43.95502 22.32306 36101 ft 404 kts 307°
2026-05-07 22:57 43.99171 22.26379 36083 ft 406 kts 307°
2026-05-07 22:58 44.02847 22.20412 36082 ft 407 kts 306°
2026-05-07 22:58 44.06519 22.14423 36083 ft 407 kts 306°
2026-05-07 22:59 44.10192 22.08413 36090 ft 408 kts 306°
2026-05-07 22:59 44.13848 22.02444 36099 ft 408 kts 306°
2026-05-07 23:00 44.17522 21.96441 36102 ft 407 kts 306°
2026-05-07 23:00 44.21185 21.90436 36110 ft 406 kts 306°
2026-05-07 23:01 44.24846 21.84425 36106 ft 407 kts 306°
2026-05-07 23:01 44.28506 21.78381 36091 ft 409 kts 306°
2026-05-07 23:02 44.32178 21.72312 36098 ft 409 kts 306°
2026-05-07 23:02 44.35851 21.66236 36093 ft 409 kts 306°
2026-05-07 23:03 44.39521 21.60164 36094 ft 409 kts 306°
2026-05-07 23:03 44.43187 21.54082 36093 ft 409 kts 306°
2026-05-07 23:04 44.46841 21.47993 36105 ft 408 kts 305°
2026-05-07 23:04 44.50490 21.41901 36095 ft 408 kts 305°
2026-05-07 23:05 44.54133 21.35808 36086 ft 408 kts 305°
2026-05-07 23:05 44.57788 21.29688 36060 ft 410 kts 305°
2026-05-07 23:06 44.61454 21.23541 36058 ft 411 kts 305°
2026-05-07 23:06 44.65120 21.17369 36077 ft 412 kts 305°
2026-05-07 23:07 44.68777 21.11187 36077 ft 411 kts 305°
2026-05-07 23:07 44.72429 21.05007 36069 ft 411 kts 305°
2026-05-07 23:08 44.76076 20.98819 36072 ft 411 kts 305°
2026-05-07 23:08 44.79720 20.92626 36090 ft 411 kts 304°
2026-05-07 23:09 44.83362 20.86432 36084 ft 411 kts 304°
2026-05-07 23:09 44.87002 20.80228 36085 ft 411 kts 304°
2026-05-07 23:10 44.90637 20.74009 36084 ft 411 kts 304°
2026-05-07 23:10 44.94272 20.67793 36080 ft 411 kts 304°
2026-05-07 23:11 44.97902 20.61564 36102 ft 411 kts 304°
2026-05-07 23:11 45.01521 20.55324 36085 ft 411 kts 304°
2026-05-07 23:12 45.05143 20.49081 36077 ft 411 kts 304°
2026-05-07 23:12 45.08764 20.42833 36072 ft 411 kts 304°
2026-05-07 23:13 45.12380 20.36572 36106 ft 411 kts 304°
2026-05-07 23:13 45.15998 20.30297 36071 ft 411 kts 304°
2026-05-07 23:14 45.19616 20.24002 36065 ft 412 kts 304°
2026-05-07 23:14 45.23238 20.17684 36068 ft 413 kts 304°
2026-05-07 23:15 45.26838 20.11394 36071 ft 413 kts 304°
2026-05-07 23:15 45.30460 20.05044 36091 ft 414 kts 304°
2026-05-07 23:16 45.34086 19.98689 36077 ft 414 kts 304°
2026-05-07 23:16 45.37709 19.92316 36080 ft 414 kts 304°
2026-05-07 23:17 45.41327 19.85937 36073 ft 414 kts 304°
2026-05-07 23:17 45.44944 19.79543 36078 ft 415 kts 304°
2026-05-07 23:18 45.48564 19.73137 36091 ft 416 kts 303°
2026-05-07 23:18 45.52186 19.66705 36080 ft 416 kts 303°
2026-05-07 23:19 45.55801 19.60252 36077 ft 417 kts 303°
2026-05-07 23:19 45.59418 19.53787 36076 ft 417 kts 303°
2026-05-07 23:20 45.63044 19.47323 36077 ft 417 kts 303°
2026-05-07 23:20 45.66666 19.40847 36072 ft 417 kts 303°
2026-05-07 23:21 45.70280 19.34363 36072 ft 417 kts 303°
2026-05-07 23:21 45.73880 19.27865 36087 ft 417 kts 303°
2026-05-07 23:22 45.77490 19.21359 36069 ft 417 kts 303°
2026-05-07 23:22 45.81077 19.14881 36077 ft 418 kts 303°
2026-05-07 23:23 45.84690 19.08332 36075 ft 419 kts 303°
2026-05-07 23:23 45.88296 19.01770 36071 ft 419 kts 303°
2026-05-07 23:24 45.91903 18.95194 36071 ft 419 kts 303°
2026-05-07 23:24 45.95079 18.88260 36093 ft 414 kts 296°
2026-05-07 23:25 45.98021 18.81129 36082 ft 415 kts 296°
2026-05-07 23:25 46.00969 18.73995 36080 ft 415 kts 296°
2026-05-07 23:26 46.03906 18.66851 36078 ft 415 kts 296°
2026-05-07 23:26 46.06833 18.59690 36092 ft 415 kts 296°
2026-05-07 23:27 46.11229 18.48930 36084 ft 415 kts 296°
2026-05-07 23:27 46.14157 18.41740 36086 ft 416 kts 295°
2026-05-07 23:28 46.17082 18.34543 36092 ft 416 kts 295°
2026-05-07 23:28 46.19999 18.27331 36085 ft 416 kts 295°
2026-05-07 23:29 46.22893 18.20151 36102 ft 416 kts 295°
2026-05-07 23:29 46.25799 18.12920 36084 ft 416 kts 295°
2026-05-07 23:30 46.28705 18.05697 36077 ft 415 kts 295°
2026-05-07 23:30 46.31603 17.98479 36074 ft 415 kts 295°
2026-05-07 23:31 46.34494 17.91254 36070 ft 415 kts 295°
2026-05-07 23:31 46.37373 17.84019 36088 ft 415 kts 295°
2026-05-07 23:32 46.40244 17.76774 36079 ft 414 kts 295°
2026-05-07 23:32 46.43118 17.69530 36079 ft 415 kts 295°
2026-05-07 23:33 46.45994 17.62265 36068 ft 416 kts 295°
2026-05-07 23:33 46.48864 17.54977 36086 ft 416 kts 295°
2026-05-07 23:34 46.51730 17.47674 36081 ft 416 kts 295°
2026-05-07 23:34 46.54598 17.40369 36077 ft 416 kts 295°
2026-05-07 23:35 46.57461 17.33069 36075 ft 416 kts 295°
2026-05-07 23:35 46.60316 17.25749 36075 ft 416 kts 295°
2026-05-07 23:36 46.63162 17.18421 36093 ft 416 kts 295°
2026-05-07 23:36 46.66003 17.11085 36085 ft 416 kts 295°
2026-05-07 23:37 46.68366 17.04993 36083 ft 416 kts 295°
2026-05-07 23:37 46.71210 16.97653 36105 ft 416 kts 295°
2026-05-07 23:38 46.74041 16.90309 36100 ft 415 kts 295°
2026-05-07 23:38 46.76856 16.82955 36093 ft 415 kts 295°
2026-05-07 23:39 46.79667 16.75603 36088 ft 415 kts 295°
2026-05-07 23:39 46.82480 16.68247 36083 ft 415 kts 295°
2026-05-07 23:40 46.85290 16.60878 36093 ft 415 kts 294°
2026-05-07 23:40 46.88092 16.53493 36107 ft 415 kts 295°
2026-05-07 23:41 46.90886 16.46100 36100 ft 415 kts 295°
2026-05-07 23:41 46.93685 16.38705 36101 ft 415 kts 295°
2026-05-07 23:42 46.96482 16.31303 36099 ft 415 kts 295°
2026-05-07 23:42 46.99259 16.23892 36097 ft 415 kts 294°
2026-05-07 23:43 47.01885 16.16385 36092 ft 413 kts 291°
2026-05-07 23:43 47.04294 16.08744 36096 ft 413 kts 290°
2026-05-07 23:44 47.06686 16.01086 36097 ft 413 kts 291°
2026-05-07 23:44 47.09114 15.93454 36096 ft 413 kts 291°
2026-05-07 23:45 47.11564 15.85821 36098 ft 413 kts 291°
2026-05-07 23:45 47.14012 15.78172 36110 ft 414 kts 291°
2026-05-07 23:46 47.16452 15.70502 36107 ft 415 kts 291°
2026-05-07 23:46 47.18873 15.62865 36111 ft 415 kts 291°
2026-05-07 23:47 47.21320 15.55113 36111 ft 415 kts 291°
2026-05-07 23:47 47.23731 15.47459 36119 ft 415 kts 291°
2026-05-07 23:48 47.26155 15.39738 36119 ft 415 kts 291°
2026-05-07 23:48 47.28577 15.32014 36130 ft 416 kts 291°
2026-05-07 23:49 47.30992 15.24280 36134 ft 416 kts 291°
2026-05-07 23:49 47.33403 15.16540 36133 ft 416 kts 291°
2026-05-07 23:50 47.35803 15.08786 36149 ft 416 kts 291°
2026-05-07 23:50 47.38228 15.01043 36138 ft 417 kts 295°
2026-05-07 23:51 47.41347 14.93794 36140 ft 419 kts 300°
2026-05-07 23:51 47.44523 14.86570 36139 ft 419 kts 299°
2026-05-07 23:52 47.47689 14.79335 36138 ft 419 kts 299°
2026-05-07 23:52 47.50833 14.72141 35410 ft 419 kts 301°
2026-05-07 23:53 47.52414 14.68519 36172 ft 421 kts 300°
2026-05-07 23:53 47.53995 14.64895 36111 ft 418 kts 300°
2026-05-07 23:53 47.57141 14.57657 36115 ft 417 kts 300°
2026-05-07 23:54 47.60276 14.50423 36111 ft 417 kts 300°
2026-05-07 23:54 47.63406 14.43184 36108 ft 417 kts 300°
2026-05-07 23:55 47.66535 14.35944 36117 ft 417 kts 300°
2026-05-07 23:55 47.69655 14.28679 36118 ft 418 kts 299°
2026-05-07 23:56 47.72777 14.21401 36115 ft 418 kts 300°
2026-05-07 23:56 47.75903 14.14108 36119 ft 418 kts 300°
2026-05-07 23:57 47.79027 14.06803 36117 ft 421 kts 299°
2026-05-07 23:57 47.82213 13.99310 36098 ft 435 kts 300°
2026-05-07 23:58 47.85464 13.91655 36099 ft 438 kts 300°
2026-05-07 23:58 47.88722 13.83969 36100 ft 439 kts 300°
2026-05-07 23:59 47.91970 13.76266 36098 ft 439 kts 299°
2026-05-07 23:59 47.95213 13.68552 36105 ft 439 kts 299°
2026-05-08 00:00 47.98459 13.60820 36120 ft 440 kts 299°
2026-05-08 00:00 48.01701 13.53078 36132 ft 440 kts 299°
2026-05-08 00:01 48.04942 13.45319 36124 ft 440 kts 299°
2026-05-08 00:01 48.08174 13.37543 36125 ft 440 kts 299°
2026-05-08 00:02 48.11402 13.29752 36136 ft 440 kts 299°
2026-05-08 00:02 48.14621 13.21960 36128 ft 440 kts 299°
2026-05-08 00:03 48.17841 13.14158 36127 ft 440 kts 299°
2026-05-08 00:03 48.21055 13.06356 36127 ft 440 kts 299°
2026-05-08 00:04 48.24581 12.98926 36124 ft 443 kts 308°
2026-05-08 00:04 48.28708 12.91962 36136 ft 444 kts 308°
2026-05-08 00:05 48.32776 12.85078 36126 ft 444 kts 308°
2026-05-08 00:05 48.36199 12.79258 36126 ft 444 kts 308°
2026-05-08 00:07 48.52912 12.50653 36127 ft 444 kts 308°
2026-05-08 00:08 48.57018 12.43596 36130 ft 445 kts 308°
2026-05-08 00:08 48.61062 12.36606 36132 ft 445 kts 308°
2026-05-08 00:09 48.65124 12.29557 36150 ft 445 kts 308°
2026-05-08 00:09 48.69190 12.22489 36149 ft 445 kts 308°
2026-05-08 00:10 48.73145 12.15286 36135 ft 443 kts 301°
2026-05-08 00:10 48.75546 12.06818 36135 ft 437 kts 281°
2026-05-08 00:11 48.76551 11.97737 36139 ft 437 kts 278°
2026-05-08 00:11 48.77535 11.88637 36133 ft 438 kts 278°
2026-05-08 00:12 48.78516 11.79529 36134 ft 438 kts 278°
2026-05-08 00:12 48.79479 11.70417 36137 ft 438 kts 278°
2026-05-08 00:13 48.80434 11.61296 36137 ft 438 kts 278°
2026-05-08 00:13 48.81384 11.52176 36137 ft 438 kts 278°
2026-05-08 00:14 48.82323 11.43054 36138 ft 438 kts 278°
2026-05-08 00:14 48.83251 11.33922 36137 ft 438 kts 278°
2026-05-08 00:15 48.84568 11.24985 36131 ft 439 kts 291°
2026-05-08 00:15 48.87902 11.17210 36134 ft 446 kts 312°
2026-05-08 00:16 48.90170 11.14005 35957 ft 444 kts 314°
2026-05-08 00:16 48.92448 11.10839 35283 ft 443 kts 314°
2026-05-08 00:16 48.94719 11.07674 34614 ft 442 kts 314°
2026-05-08 00:16 48.96980 11.04517 33934 ft 440 kts 314°
2026-05-08 00:17 48.99231 11.01369 33237 ft 438 kts 314°
2026-05-08 00:17 49.01467 10.98237 32534 ft 436 kts 314°
2026-05-08 00:17 49.03693 10.95110 31915 ft 434 kts 315°
2026-05-08 00:17 49.05910 10.91990 31234 ft 433 kts 315°
2026-05-08 00:18 49.08103 10.88896 30769 ft 428 kts 315°
2026-05-08 00:18 49.10281 10.85816 30238 ft 424 kts 315°
2026-05-08 00:18 49.12437 10.82764 29606 ft 421 kts 315°
2026-05-08 00:18 49.14564 10.79751 29123 ft 414 kts 315°
2026-05-08 00:19 49.16655 10.76787 28632 ft 408 kts 315°
2026-05-08 00:19 49.18722 10.73859 28140 ft 402 kts 315°
2026-05-08 00:19 49.20742 10.70947 27679 ft 396 kts 314°
2026-05-08 00:19 49.22680 10.67996 27173 ft 391 kts 313°
2026-05-08 00:20 49.24558 10.65027 26739 ft 386 kts 312°
2026-05-08 00:20 49.26396 10.62069 26313 ft 382 kts 311°
2026-05-08 00:20 49.28213 10.59131 25878 ft 378 kts 311°
2026-05-08 00:20 49.30018 10.56227 25475 ft 375 kts 312°
2026-05-08 00:21 49.31817 10.53350 25068 ft 372 kts 312°
2026-05-08 00:21 49.33605 10.50508 24670 ft 369 kts 312°
2026-05-08 00:21 49.35384 10.47689 24278 ft 366 kts 311°
2026-05-08 00:21 49.36947 10.44697 24098 ft 365 kts 303°
2026-05-08 00:22 49.38428 10.41455 24016 ft 367 kts 304°
2026-05-08 00:22 49.39873 10.38294 23956 ft 367 kts 304°
2026-05-08 00:22 49.41339 10.35085 23729 ft 366 kts 304°
2026-05-08 00:22 49.42820 10.31844 23455 ft 365 kts 304°
2026-05-08 00:23 49.44257 10.28698 23192 ft 365 kts 303°
2026-05-08 00:23 49.45712 10.25504 22912 ft 364 kts 303°
2026-05-08 00:23 49.47159 10.22320 22625 ft 363 kts 303°
2026-05-08 00:23 49.48599 10.19147 22363 ft 361 kts 303°
2026-05-08 00:24 49.50033 10.15986 22087 ft 360 kts 303°
2026-05-08 00:24 49.51461 10.12831 21831 ft 359 kts 303°
2026-05-08 00:24 49.52882 10.09686 21575 ft 357 kts 303°
2026-05-08 00:24 49.54299 10.06553 21317 ft 356 kts 303°
2026-05-08 00:25 49.55710 10.03423 21055 ft 355 kts 303°
2026-05-08 00:25 49.57113 10.00301 20800 ft 354 kts 303°
2026-05-08 00:25 49.58512 9.97188 20546 ft 353 kts 303°
2026-05-08 00:25 49.59908 9.94084 20295 ft 352 kts 303°
2026-05-08 00:26 49.61298 9.90991 20050 ft 351 kts 303°
2026-05-08 00:26 49.62687 9.87898 19801 ft 350 kts 303°
2026-05-08 00:26 49.64072 9.84811 19558 ft 349 kts 303°
2026-05-08 00:26 49.65449 9.81732 19309 ft 348 kts 303°
2026-05-08 00:27 49.66822 9.78659 19061 ft 347 kts 303°
2026-05-08 00:27 49.68189 9.75595 18832 ft 346 kts 303°
2026-05-08 00:27 49.69551 9.72536 18600 ft 345 kts 303°
2026-05-08 00:27 49.70904 9.69488 18350 ft 344 kts 303°
2026-05-08 00:28 49.72256 9.66440 18075 ft 343 kts 303°
2026-05-08 00:28 49.73601 9.63409 17805 ft 341 kts 303°
2026-05-08 00:28 49.74942 9.60387 17530 ft 340 kts 303°
2026-05-08 00:28 49.76276 9.57379 17264 ft 339 kts 303°
2026-05-08 00:29 49.77603 9.54379 16871 ft 337 kts 303°
2026-05-08 00:29 49.78920 9.51400 16447 ft 335 kts 303°
2026-05-08 00:29 49.80231 9.48436 16031 ft 333 kts 303°
2026-05-08 00:29 49.81509 9.45539 15627 ft 330 kts 303°
2026-05-08 00:30 49.82804 9.42596 15206 ft 328 kts 303°
2026-05-08 00:30 49.84084 9.39687 14785 ft 325 kts 303°
2026-05-08 00:30 49.85352 9.36799 14374 ft 323 kts 302°
2026-05-08 00:30 49.86392 9.33745 13996 ft 319 kts 290°
2026-05-08 00:31 49.87056 9.30476 13671 ft 321 kts 285°
2026-05-08 00:31 49.87715 9.27004 13328 ft 346 kts 285°
2026-05-08 00:31 49.88403 9.23404 12974 ft 350 kts 286°
2026-05-08 00:31 49.89098 9.19786 12624 ft 350 kts 286°
2026-05-08 00:32 49.89791 9.16179 12283 ft 348 kts 286°
2026-05-08 00:32 49.90468 9.12634 11933 ft 347 kts 285°
2026-05-08 00:32 49.91147 9.09055 11591 ft 346 kts 286°
2026-05-08 00:32 49.91825 9.05486 11247 ft 344 kts 286°
2026-05-08 00:33 49.92500 9.01928 10979 ft 343 kts 286°
2026-05-08 00:33 49.93177 8.98378 10868 ft 343 kts 286°
2026-05-08 00:33 49.93855 8.94831 10723 ft 343 kts 286°
2026-05-08 00:33 49.94533 8.91284 10574 ft 342 kts 286°
2026-05-08 00:34 49.95204 8.87765 10185 ft 338 kts 286°
2026-05-08 00:34 49.95867 8.84277 9592 ft 336 kts 286°
2026-05-08 00:34 49.96526 8.80815 9011 ft 333 kts 286°
2026-05-08 00:34 49.97175 8.77378 8456 ft 330 kts 286°
2026-05-08 00:35 49.97756 8.73954 7902 ft 326 kts 278°
2026-05-08 00:35 49.97770 8.70469 7467 ft 320 kts 261°
2026-05-08 00:35 49.97160 8.67239 7341 ft 305 kts 249°
2026-05-08 00:35 49.96433 8.64229 7211 ft 291 kts 250°
2026-05-08 00:36 49.95739 8.61343 7093 ft 279 kts 250°
2026-05-08 00:36 49.95076 8.58581 6966 ft 268 kts 250°
2026-05-08 00:36 49.94435 8.55926 6842 ft 257 kts 250°
2026-05-08 00:36 49.93822 8.53373 6719 ft 248 kts 250°
2026-05-08 00:37 49.93233 8.50917 6589 ft 238 kts 250°
2026-05-08 00:37 49.92658 8.48528 6266 ft 237 kts 250°
2026-05-08 00:37 49.92063 8.46056 5596 ft 251 kts 250°
2026-05-08 00:38 49.90840 8.40958 5016 ft 253 kts 250°
2026-05-08 00:38 49.90218 8.38395 4895 ft 254 kts 250°
2026-05-08 00:38 49.89591 8.35824 4754 ft 255 kts 250°
2026-05-08 00:38 49.88967 8.33252 4631 ft 255 kts 249°
2026-05-08 00:39 49.88345 8.30681 4504 ft 255 kts 249°
2026-05-08 00:39 49.87720 8.28113 4368 ft 254 kts 249°
2026-05-08 00:39 49.87098 8.25552 4246 ft 251 kts 249°
2026-05-08 00:39 49.86496 8.23072 4116 ft 241 kts 249°
2026-05-08 00:40 49.85920 8.20696 4007 ft 230 kts 249°
2026-05-08 00:40 49.85377 8.18462 3994 ft 215 kts 249°
2026-05-08 00:40 49.84852 8.16308 4006 ft 213 kts 249°
2026-05-08 00:40 49.84326 8.14157 4008 ft 214 kts 249°
2026-05-08 00:41 49.83800 8.12008 4037 ft 214 kts 249°
2026-05-08 00:41 49.83456 8.09790 4000 ft 213 kts 272°
2026-05-08 00:41 49.83933 8.07654 4009 ft 213 kts 308°
2026-05-08 00:41 49.85100 8.06284 4020 ft 212 kts 334°
2026-05-08 00:42 49.86472 8.05572 4003 ft 211 kts 355°
2026-05-08 00:42 49.87912 8.05870 4016 ft 211 kts 24°
2026-05-08 00:42 49.88741 8.06692 4015 ft 210 kts 44°
2026-05-08 00:42 49.89994 8.09014 4020 ft 213 kts 52°
2026-05-08 00:43 49.90950 8.10858 4020 ft 224 kts 51°
2026-05-08 00:43 49.91913 8.12714 4021 ft 225 kts 51°
2026-05-08 00:43 49.92910 8.14636 4011 ft 230 kts 51°
2026-05-08 00:43 49.93916 8.16581 4008 ft 231 kts 51°
2026-05-08 00:44 49.94795 8.18661 4009 ft 231 kts 64°
2026-05-08 00:44 49.95421 8.20963 4010 ft 231 kts 69°
2026-05-08 00:44 49.95969 8.23238 3998 ft 216 kts 69°
2026-05-08 00:44 49.96314 8.24676 4003 ft 212 kts 69°
2026-05-08 00:45 49.96831 8.26811 3914 ft 211 kts 69°
2026-05-08 00:45 49.97338 8.28901 3673 ft 207 kts 69°
2026-05-08 00:45 49.97839 8.30967 3430 ft 202 kts 69°
2026-05-08 00:45 49.98325 8.32974 3179 ft 193 kts 70°
2026-05-08 00:46 49.98785 8.34875 2899 ft 183 kts 70°
2026-05-08 00:46 49.99221 8.36681 2645 ft 174 kts 70°
2026-05-08 00:46 49.99635 8.38396 2422 ft 165 kts 70°
2026-05-08 00:46 50.00034 8.40049 2202 ft 162 kts 70°
2026-05-08 00:47 50.00409 8.41601 1994 ft 146 kts 70°
2026-05-08 00:47 50.00756 8.43041 1785 ft 139 kts 70°
2026-05-08 00:47 50.01093 8.44442 1600 ft 137 kts 70°
2026-05-08 00:47 50.01426 8.45825 1407 ft 136 kts 69°
2026-05-08 00:48 50.01757 8.47203 1226 ft 136 kts 69°
2026-05-08 00:48 50.02085 8.48577 1041 ft 135 kts 68°
2026-05-08 00:48 50.02418 8.49938 871 ft 134 kts 66°
2026-05-08 00:48 50.02746 8.51290 690 ft 133 kts 70°
2026-05-08 00:49 50.03062 8.52639 507 ft 132 kts 68°
2026-05-08 00:49 50.03381 8.53976 355 ft 127 kts 67°
2026-05-08 00:49 50.03649 8.55075 349 ft 87 kts 69°
2026-05-08 00:49 50.03798 8.55698 358 ft 31 kts 70°
2026-05-08 00:50 50.03891 8.55898 355 ft 14 kts 41°
2026-05-08 00:50 50.03954 8.55986 356 ft 10 kts 43°
2026-05-08 00:50 50.04010 8.56059 352 ft 11 kts 38°
2026-05-08 00:50 50.04072 8.56131 360 ft 11 kts 34°
2026-05-08 00:51 50.04116 8.56233 353 ft 12 kts 69°
2026-05-08 00:51 50.04149 8.56366 357 ft 14 kts 70°
2026-05-08 00:51 50.04183 8.56512 362 ft 15 kts 70°
2026-05-08 00:51 50.04220 8.56670 364 ft 16 kts 70°
2026-05-08 00:52 50.04262 8.56795 362 ft 11 kts 37°
2026-05-08 00:52 50.04341 8.56825 360 ft 13 kts 11°
2026-05-08 00:52 50.04435 8.56851 363 ft 15 kts
2026-05-08 00:52 50.04528 8.56883 359 ft 12 kts 14°
2026-05-08 00:53 50.04581 8.56864 361 ft 11 kts 301°
2026-05-08 00:53 50.04597 8.56810 359 ft 3 kts 294°
2026-05-08 00:53 50.04605 8.56782 356 ft 1 kts 295°
2026-05-08 00:53 50.04605 8.56780 356 ft 0 kts 295°